Regional Weather Roundup
Issued by NWS Midland/Odessa, TX

Skip options and go directly to product.
Home | Oldest Version | Previous Version | Current Version | All | Text Only | Save Text | Print | Product List | Glossary Off

Skip product version selection by date and time.   

849
ASUS44 KMAF 011810
RWRMAF
MIDLAND AREA WEATHER ROUNDUP
NATIONAL WEATHER SERVICE MIDLAND TX
100 PM CDT TUE SEP 01 2015

...IN SOUTHWEST TEXAS AND SOUTHEAST NEW MEXICO...

CITY           SKY/WX    TMP DP  RH WIND       PRES   REMARKS
ALPINE         SUNNY     89  48  23 NE7       30.19S
ANDREWS        FAIR      88  54  31 S13G22    30.09F
ARTESIA        SUNNY     90  54  29 S21G26    30.08F
BIG SPRING     SUNNY     88  57  34 SE12G17   30.09F
CARLSBAD       SUNNY     90  53  28 SE18G26   30.05F
DRYDEN           N/A     85  66  53 S10G25    30.04F
FORT STOCKTON  SUNNY     90  57  32 SE15G21   30.05F
GUAD PASS      SUNNY     85  47  26 E10       30.22S
HOBBS          SUNNY     86  52  30 SE16G25   30.11F
MARFA          SUNNY     84  52  32 S8        30.18F
MIDLAND AIRPK  SUNNY     91  53  27 SE15      30.07F
MIDLAND INTL   SUNNY     91  54  28 SE17G25   30.07F
ODESSA         NOT AVBL
PECOS          SUNNY     92  52  25 E13G18    30.02F
PRESIDIO       NOT AVBL
SEMINOLE       SUNNY     90  51  26 S13G23    30.10F
SNYDER         SUNNY     88  61  40 SE9       30.07F
WINK           SUNNY     91  57  31 SE14G23   30.04F
$$
...OTHER STATIONS IN TEXAS...

CITY           SKY/WX    TMP DP  RH WIND       PRES   REMARKS
ABILENE        MOSUNNY   90  62  39 S9G16     30.05F
AMARILLO       SUNNY     87  57  35 S22G31    30.09F
AUSTIN         LGT RAIN  82  71  69 E13       30.03S
BROWNSVILLE    CLOUDY    86  74  67 E16       29.97F
CORPUS CHRISTI PTSUNNY   87  73  62 S8G20     29.97F
DALLAS FTW     MOSUNNY   90  64  42 S10       30.02F
DEL RIO        SUNNY     89  66  46 S12       29.99F
EL PASO        MOSUNNY   91  45  20 N5        30.08S
HOUSTON INT    CLOUDY    77  70  79 SE8       30.07F
LUBBOCK        MOSUNNY   91  53  27 S18G24    30.09S
SAN ANGELO     MOSUNNY   91  61  36 S13G20    30.04F
SAN ANTONIO    PTSUNNY   88  68  51 SE10      30.02F
WACO           PTSUNNY   89  67  47 SE9       30.03F
WICHITA FALLS  NOT AVBL
$$
...OTHER LOCATIONS IN NEW MEXICO...

CITY           SKY/WX    TMP DP  RH WIND       PRES   REMARKS
ALAMAGORDO     MOSUNNY   90  46  22 CALM      30.10F
ALBUQUERQUE    MOSUNNY   83  47  28 NW8       30.21F
CANNON AFB     SUNNY     88  53  29 S18       30.11F
CLOVIS         SUNNY     88  54  31 S21G29    30.13S
HOLLOMAN AFB   MOSUNNY   92  49  22 VRB2      30.07F
ROSWELL        SUNNY     89  53  29 S15G24    30.08F
RUIDOSO        MOSUNNY   77  43  29 MISG      30.30F
SANTA FE       SUNNY     81  43  26 NE9       30.25F
TRUTH OR CONSE MOSUNNY   86  48  26 E5        30.14F
TUCUMCARI      SUNNY     90  51  26 SW6       30.07F
$$

USA.gov is the U.S. government's official web portal to all federal, state and local government web resources and services.